Time,TemperatureF,DewpointF,PressureIn,WindDirection,WindDirectionDegrees,WindSpeedMPH,WindSpeedGustMPH,Humidity,HourlyPrecipIn,Conditions,Clouds,dailyrainin,SoftwareType,DateUTC
2013-05-30 00:05:00,63.9,63.0,30.06,WSW,245,3.0,3.0,97,0.00,,,0.00,Wunderground v.1.13,2013-05-30 04:05:00,
2013-05-30 00:10:00,63.9,63.0,30.06,West,273,2.0,3.0,97,0.00,,,0.00,Wunderground v.1.13,2013-05-30 04:10:00,
2013-05-30 00:20:00,63.9,63.0,30.06,WSW,246,1.0,6.0,97,0.00,,,0.00,Wunderground v.1.13,2013-05-30 04:20:00,
2013-05-30 00:30:00,63.8,62.9,30.06,SW,227,2.0,3.0,97,0.00,,,0.00,Wunderground v.1.13,2013-05-30 04:30:00,
2013-05-30 00:35:00,63.8,62.9,30.06,WSW,252,2.0,4.0,97,0.00,,,0.00,Wunderground v.1.13,2013-05-30 04:35:00,
2013-05-30 00:40:00,63.8,62.9,30.06,WSW,248,2.0,2.0,97,0.00,,,0.00,Wunderground v.1.13,2013-05-30 04:40:00,
2013-05-30 00:50:00,63.8,62.9,30.05,WSW,240,1.0,3.0,97,0.00,,,0.00,Wunderground v.1.13,2013-05-30 04:50:00,
2013-05-30 00:55:00,63.7,62.8,30.05,WSW,240,1.0,3.0,97,0.00,,,0.00,Wunderground v.1.13,2013-05-30 04:55:00,
2013-05-30 01:00:00,63.7,62.8,30.05,WSW,240,1.0,1.0,97,0.00,,,0.00,Wunderground v.1.13,2013-05-30 05:00:00,
2013-05-30 01:05:00,63.6,62.7,30.05,WSW,248,1.0,4.0,97,0.00,,,0.00,Wunderground v.1.13,2013-05-30 05:05:00,
2013-05-30 01:15:00,63.5,62.6,30.05,WSW,244,1.0,1.0,97,0.00,,,0.00,Wunderground v.1.13,2013-05-30 05:15:00,
2013-05-30 01:25:00,63.4,62.5,30.05,WSW,245,1.0,1.0,97,0.00,,,0.00,Wunderground v.1.13,2013-05-30 05:25:00,
2013-05-30 01:30:00,63.3,62.4,30.05,WSW,245,1.0,1.0,97,0.00,,,0.00,Wunderground v.1.13,2013-05-30 05:30:00,
2013-05-30 01:35:00,63.2,62.3,30.04,WSW,245,1.0,1.0,97,0.00,,,0.00,Wunderground v.1.13,2013-05-30 05:35:00,
2013-05-30 01:45:00,63.1,62.2,30.05,WSW,245,0.0,1.0,97,0.00,,,0.00,Wunderground v.1.13,2013-05-30 05:45:00,
2013-05-30 01:50:00,63.1,62.2,30.04,WSW,245,0.0,0.0,97,0.00,,,0.00,Wunderground v.1.13,2013-05-30 05:50:00,
2013-05-30 01:55:00,63.0,62.1,30.05,WSW,245,0.0,0.0,97,0.00,,,0.00,Wunderground v.1.13,2013-05-30 05:55:00,
2013-05-30 02:05:00,63.0,62.1,30.05,WSW,245,1.0,1.0,97,0.00,,,0.00,Wunderground v.1.13,2013-05-30 06:05:00,
2013-05-30 02:10:00,62.9,62.0,30.05,WSW,245,1.0,1.0,97,0.00,,,0.00,Wunderground v.1.13,2013-05-30 06:10:00,
2013-05-30 02:15:00,62.9,62.0,30.05,WSW,245,0.0,4.0,97,0.00,,,0.00,Wunderground v.1.13,2013-05-30 06:15:00,
2013-05-30 02:25:00,62.8,61.9,30.05,WSW,245,0.0,4.0,97,0.00,,,0.00,Wunderground v.1.13,2013-05-30 06:25:00,
2013-05-30 02:30:00,62.8,61.9,30.04,WSW,245,0.0,4.0,97,0.00,,,0.00,Wunderground v.1.13,2013-05-30 06:30:00,
2013-05-30 02:35:00,62.7,61.8,30.05,WSW,245,0.0,4.0,97,0.00,,,0.00,Wunderground v.1.13,2013-05-30 06:35:00,
2013-05-30 02:40:00,62.7,61.8,30.04,WSW,245,0.0,4.0,97,0.00,,,0.00,Wunderground v.1.13,2013-05-30 06:40:00,
2013-05-30 02:50:00,62.7,61.8,30.04,WSW,245,0.0,4.0,97,0.00,,,0.00,Wunderground v.1.13,2013-05-30 06:50:00,
2013-05-30 02:55:00,62.6,61.7,30.05,WSW,245,0.0,4.0,97,0.00,,,0.00,Wunderground v.1.13,2013-05-30 06:55:00,
2013-05-30 03:05:00,62.6,61.7,30.05,WSW,245,0.0,4.0,97,0.00,,,0.00,Wunderground v.1.13,2013-05-30 07:05:00,
2013-05-30 03:10:00,62.5,61.6,30.05,WSW,245,0.0,4.0,97,0.00,,,0.00,Wunderground v.1.13,2013-05-30 07:10:00,
2013-05-30 03:20:00,62.5,61.6,30.05,WSW,245,0.0,4.0,97,0.00,,,0.00,Wunderground v.1.13,2013-05-30 07:20:00,
2013-05-30 03:25:00,62.5,61.6,30.05,WSW,245,0.0,4.0,97,0.00,,,0.00,Wunderground v.1.13,2013-05-30 07:25:00,
2013-05-30 03:30:00,62.5,61.6,30.04,WSW,245,1.0,4.0,97,0.00,,,0.00,Wunderground v.1.13,2013-05-30 07:30:00,
2013-05-30 03:40:00,62.5,61.6,30.05,WSW,245,0.0,4.0,97,0.00,,,0.00,Wunderground v.1.13,2013-05-30 07:40:00,
2013-05-30 03:45:00,62.5,61.6,30.05,WSW,245,0.0,4.0,97,0.00,,,0.00,Wunderground v.1.13,2013-05-30 07:45:00,
2013-05-30 03:50:00,62.5,61.6,30.05,WSW,245,0.0,4.0,97,0.00,,,0.00,Wunderground v.1.13,2013-05-30 07:50:00,
2013-05-30 04:00:00,62.5,61.6,30.05,WSW,245,0.0,4.0,97,0.00,,,0.00,Wunderground v.1.13,2013-05-30 08:00:00,
2013-05-30 04:05:00,62.6,61.7,30.05,WSW,245,1.0,1.0,97,0.00,,,0.00,Wunderground v.1.13,2013-05-30 08:05:00,
2013-05-30 04:10:00,62.6,62.6,30.05,WSW,245,1.0,1.0,100,0.00,,,0.00,Wunderground v.1.13,2013-05-30 08:10:00,
2013-05-30 04:15:00,62.6,62.6,30.05,WSW,245,0.0,4.0,100,0.00,,,0.00,Wunderground v.1.13,2013-05-30 08:15:00,
2013-05-30 04:25:00,62.6,62.0,30.05,WSW,245,0.0,4.0,98,0.00,,,0.00,Wunderground v.1.13,2013-05-30 08:25:00,
2013-05-30 04:30:00,62.6,61.7,30.05,WSW,245,0.0,4.0,97,0.00,,,0.00,Wunderground v.1.13,2013-05-30 08:30:00,
2013-05-30 04:35:00,62.6,61.7,30.05,WSW,245,0.0,4.0,97,0.00,,,0.00,Wunderground v.1.13,2013-05-30 08:35:00,
2013-05-30 04:45:00,62.7,62.1,30.05,WSW,245,1.0,1.0,98,0.00,,,0.00,Wunderground v.1.13,2013-05-30 08:45:00,
2013-05-30 04:50:00,62.8,62.2,30.05,WSW,245,0.0,4.0,98,0.00,,,0.00,Wunderground v.1.13,2013-05-30 08:50:00,
2013-05-30 04:55:00,62.9,62.3,30.05,WSW,246,1.0,4.0,98,0.00,,,0.00,Wunderground v.1.13,2013-05-30 08:55:00,
2013-05-30 05:00:00,63.1,62.5,30.05,WSW,244,1.0,4.0,98,0.00,,,0.00,Wunderground v.1.13,2013-05-30 09:00:00,
2013-05-30 05:10:00,63.5,62.9,30.05,SW,233,1.0,4.0,98,0.00,,,0.00,Wunderground v.1.13,2013-05-30 09:10:00,
2013-05-30 05:15:00,63.5,62.9,30.05,SW,235,1.0,6.0,98,0.00,,,0.00,Wunderground v.1.13,2013-05-30 09:15:00,
2013-05-30 05:20:00,63.6,63.0,30.05,SW,236,1.0,4.0,98,0.00,,,0.00,Wunderground v.1.13,2013-05-30 09:20:00,
2013-05-30 05:30:00,63.6,63.0,30.05,WSW,237,1.0,1.0,98,0.00,,,0.00,Wunderground v.1.13,2013-05-30 09:30:00,
2013-05-30 05:35:00,63.7,63.1,30.06,WSW,237,1.0,4.0,98,0.00,,,0.00,Wunderground v.1.13,2013-05-30 09:35:00,
2013-05-30 05:40:00,63.7,63.1,30.06,WSW,237,1.0,4.0,98,0.00,,,0.00,Wunderground v.1.13,2013-05-30 09:40:00,
2013-05-30 05:50:00,63.8,63.2,30.06,WSW,239,1.0,1.0,98,0.00,,,0.00,Wunderground v.1.13,2013-05-30 09:50:00,
2013-05-30 05:55:00,63.8,63.2,30.06,WSW,239,1.0,4.0,98,0.00,,,0.00,Wunderground v.1.13,2013-05-30 09:55:00,
2013-05-30 06:00:00,63.8,63.2,30.07,WSW,240,1.0,4.0,98,0.00,,,0.00,Wunderground v.1.13,2013-05-30 10:00:00,
2013-05-30 06:05:00,63.9,63.3,30.07,WSW,240,1.0,1.0,98,0.00,,,0.00,Wunderground v.1.13,2013-05-30 10:05:00,
2013-05-30 06:15:00,63.9,63.3,30.07,WSW,240,1.0,4.0,98,0.00,,,0.00,Wunderground v.1.13,2013-05-30 10:15:00,
2013-05-30 06:20:00,63.9,63.3,30.07,WSW,240,1.0,1.0,98,0.00,,,0.00,Wunderground v.1.13,2013-05-30 10:20:00,
2013-05-30 06:30:00,64.0,63.4,30.07,WSW,240,1.0,4.0,98,0.00,,,0.00,Wunderground v.1.13,2013-05-30 10:30:00,
2013-05-30 06:35:00,64.0,63.4,30.07,WSW,240,1.0,1.0,98,0.00,,,0.00,Wunderground v.1.13,2013-05-30 10:35:00,
2013-05-30 06:40:00,64.0,63.4,30.07,WSW,240,1.0,1.0,98,0.00,,,0.00,Wunderground v.1.13,2013-05-30 10:40:00,
2013-05-30 06:45:00,64.0,63.4,30.07,WSW,240,1.0,1.0,98,0.00,,,0.00,Wunderground v.1.13,2013-05-30 10:45:00,
2013-05-30 06:55:00,64.2,63.6,30.07,WSW,240,0.0,4.0,98,0.00,,,0.00,Wunderground v.1.13,2013-05-30 10:55:00,
2013-05-30 07:00:00,64.3,63.7,30.07,WSW,240,0.0,4.0,98,0.00,,,0.00,Wunderground v.1.13,2013-05-30 11:00:00,
2013-05-30 07:05:00,64.3,63.7,30.07,WSW,240,0.0,4.0,98,0.00,,,0.00,Wunderground v.1.13,2013-05-30 11:05:00,
2013-05-30 07:15:00,64.5,63.9,30.07,WSW,240,0.0,4.0,98,0.00,,,0.00,Wunderground v.1.13,2013-05-30 11:15:00,
2013-05-30 07:20:00,64.6,64.0,30.07,WSW,240,0.0,4.0,98,0.00,,,0.00,Wunderground v.1.13,2013-05-30 11:20:00,
2013-05-30 07:25:00,64.8,64.2,30.07,WSW,240,0.0,4.0,98,0.00,,,0.00,Wunderground v.1.13,2013-05-30 11:25:00,
2013-05-30 07:35:00,65.4,64.8,30.08,WSW,240,1.0,4.0,98,0.00,,,0.00,Wunderground v.1.13,2013-05-30 11:35:00,
2013-05-30 07:40:00,65.8,65.2,30.08,WSW,240,1.0,4.0,98,0.00,,,0.00,Wunderground v.1.13,2013-05-30 11:40:00,
2013-05-30 07:45:00,66.1,65.5,30.08,WSW,240,1.0,4.0,98,0.00,,,0.00,Wunderground v.1.13,2013-05-30 11:45:00,
2013-05-30 07:55:00,66.9,66.3,30.08,WSW,240,1.0,4.0,98,0.00,,,0.00,Wunderground v.1.13,2013-05-30 11:55:00,
2013-05-30 08:00:00,67.3,66.7,30.08,WSW,240,1.0,1.0,98,0.00,,,0.00,Wunderground v.1.13,2013-05-30 12:00:00,
2013-05-30 08:05:00,67.7,66.8,30.08,WSW,240,1.0,4.0,97,0.00,,,0.00,Wunderground v.1.13,2013-05-30 12:05:00,
2013-05-30 08:10:00,68.4,67.2,30.08,WSW,240,1.0,1.0,96,0.00,,,0.00,Wunderground v.1.13,2013-05-30 12:10:00,
2013-05-30 08:20:00,69.0,67.5,30.09,WSW,240,0.0,4.0,95,0.00,,,0.00,Wunderground v.1.13,2013-05-30 12:20:00,
2013-05-30 08:25:00,69.0,67.5,30.09,WSW,240,0.0,4.0,95,0.00,,,0.00,Wunderground v.1.13,2013-05-30 12:25:00,
2013-05-30 08:30:00,69.9,68.4,30.09,WSW,240,0.0,4.0,95,0.00,,,0.00,Wunderground v.1.13,2013-05-30 12:30:00,
2013-05-30 08:35:00,71.0,68.9,30.09,WSW,240,0.0,4.0,93,0.00,,,0.00,Wunderground v.1.13,2013-05-30 12:35:00,
2013-05-30 08:45:00,72.2,68.8,30.09,West,273,1.0,1.0,89,0.00,,,0.00,Wunderground v.1.13,2013-05-30 12:45:00,
2013-05-30 08:50:00,72.5,69.4,30.10,West,274,0.0,4.0,90,0.00,,,0.00,Wunderground v.1.13,2013-05-30 12:50:00,
2013-05-30 09:00:00,73.6,69.5,30.10,West,275,0.0,4.0,87,0.00,,,0.00,Wunderground v.1.13,2013-05-30 13:00:00,
2013-05-30 09:05:00,74.3,69.8,30.10,WSW,245,1.0,1.0,86,0.00,,,0.00,Wunderground v.1.13,2013-05-30 13:05:00,
2013-05-30 09:10:00,74.5,70.4,30.10,WSW,245,1.0,1.0,87,0.00,,,0.00,Wunderground v.1.13,2013-05-30 13:10:00,
2013-05-30 09:15:00,74.7,70.6,30.10,WSW,245,0.0,4.0,87,0.00,,,0.00,Wunderground v.1.13,2013-05-30 13:15:00,
2013-05-30 09:25:00,75.2,70.4,30.10,WSW,254,1.0,4.0,85,0.00,,,0.00,Wunderground v.1.13,2013-05-30 13:25:00,
2013-05-30 09:30:00,75.5,70.7,30.09,WSW,254,1.0,4.0,85,0.00,,,0.00,Wunderground v.1.13,2013-05-30 13:30:00,
2013-05-30 09:35:00,76.1,69.5,30.10,SW,222,1.0,4.0,80,0.00,,,0.00,Wunderground v.1.13,2013-05-30 13:35:00,
2013-05-30 09:45:00,76.6,69.6,30.09,WNW,303,1.0,1.0,79,0.00,,,0.00,Wunderground v.1.13,2013-05-30 13:45:00,
2013-05-30 09:50:00,77.3,70.6,30.09,West,269,0.0,4.0,80,0.00,,,0.00,Wunderground v.1.13,2013-05-30 13:50:00,
2013-05-30 09:55:00,77.1,69.3,30.09,SW,223,1.0,4.0,77,0.00,,,0.00,Wunderground v.1.13,2013-05-30 13:55:00,
2013-05-30 10:00:00,77.0,70.7,30.09,SW,233,1.0,4.0,81,0.00,,,0.00,Wunderground v.1.13,2013-05-30 14:00:00,
2013-05-30 10:10:00,78.0,70.2,30.09,SW,220,3.0,3.0,77,0.00,,,0.00,Wunderground v.1.13,2013-05-30 14:10:00,
2013-05-30 10:15:00,78.4,69.4,30.09,SW,227,3.0,3.0,74,0.00,,,0.00,Wunderground v.1.13,2013-05-30 14:15:00,
2013-05-30 10:20:00,78.7,70.5,30.09,WSW,253,1.0,1.0,76,0.00,,,0.00,Wunderground v.1.13,2013-05-30 14:20:00,
2013-05-30 10:30:00,79.3,70.3,30.09,WSW,240,2.0,2.0,74,0.00,,,0.00,Wunderground v.1.13,2013-05-30 14:30:00,
2013-05-30 10:35:00,79.4,70.8,30.09,WSW,237,2.0,4.0,75,0.00,,,0.00,Wunderground v.1.13,2013-05-30 14:35:00,
2013-05-30 10:40:00,79.4,69.6,30.09,SW,215,2.0,2.0,72,0.00,,,0.00,Wunderground v.1.13,2013-05-30 14:40:00,
2013-05-30 10:50:00,80.4,72.1,30.09,WSW,244,1.0,4.0,76,0.00,,,0.00,Wunderground v.1.13,2013-05-30 14:50:00,
2013-05-30 10:55:00,80.6,71.9,30.09,WSW,240,1.0,1.0,75,0.00,,,0.00,Wunderground v.1.13,2013-05-30 14:55:00,
2013-05-30 11:00:00,80.5,70.2,30.09,South,191,1.0,4.0,71,0.00,,,0.00,Wunderground v.1.13,2013-05-30 15:00:00,
2013-05-30 11:05:00,80.5,71.4,30.08,WSW,240,2.0,4.0,74,0.00,,,0.00,Wunderground v.1.13,2013-05-30 15:05:00,
2013-05-30 11:15:00,81.4,71.1,30.09,West,276,1.0,1.0,71,0.00,,,0.00,Wunderground v.1.13,2013-05-30 15:15:00,
2013-05-30 11:20:00,81.8,71.9,30.09,NNW,340,1.0,4.0,72,0.00,,,0.00,Wunderground v.1.13,2013-05-30 15:20:00,
2013-05-30 11:25:00,82.0,71.7,30.09,NNW,340,1.0,4.0,71,0.00,,,0.00,Wunderground v.1.13,2013-05-30 15:25:00,
2013-05-30 11:35:00,81.3,71.8,30.09,SW,233,1.0,1.0,73,0.00,,,0.00,Wunderground v.1.13,2013-05-30 15:35:00,
2013-05-30 11:40:00,82.0,72.5,30.09,SW,223,1.0,4.0,73,0.00,,,0.00,Wunderground v.1.13,2013-05-30 15:40:00,
2013-05-30 11:45:00,82.4,71.6,30.08,SW,223,1.0,1.0,70,0.00,,,0.00,Wunderground v.1.13,2013-05-30 15:45:00,
2013-05-30 11:55:00,82.1,70.9,30.09,SW,229,1.0,1.0,69,0.00,,,0.00,Wunderground v.1.13,2013-05-30 15:55:00,
2013-05-30 12:00:00,81.5,70.3,30.08,WSW,245,1.0,4.0,69,0.00,,,0.00,Wunderground v.1.13,2013-05-30 16:00:00,
2013-05-30 12:05:00,82.2,71.0,30.09,WNW,300,1.0,4.0,69,0.00,,,0.00,Wunderground v.1.13,2013-05-30 16:05:00,
2013-05-30 12:15:00,82.1,70.5,30.09,South,188,1.0,4.0,68,0.00,,,0.00,Wunderground v.1.13,2013-05-30 16:15:00,
2013-05-30 12:20:00,82.5,71.3,30.09,NNW,347,2.0,4.0,69,0.00,,,0.00,Wunderground v.1.13,2013-05-30 16:20:00,
2013-05-30 12:25:00,82.1,70.5,30.08,WSW,256,2.0,2.0,68,0.00,,,0.00,Wunderground v.1.13,2013-05-30 16:25:00,
2013-05-30 12:35:00,83.4,71.7,30.08,SW,236,2.0,6.0,68,0.00,,,0.00,Wunderground v.1.13,2013-05-30 16:35:00,
2013-05-30 12:40:00,82.9,72.5,30.08,SW,225,3.0,5.0,71,0.00,,,0.00,Wunderground v.1.13,2013-05-30 16:40:00,
2013-05-30 12:45:00,82.6,71.0,30.08,SW,214,3.0,4.0,68,0.00,,,0.00,Wunderground v.1.13,2013-05-30 16:45:00,
2013-05-30 12:50:00,83.0,71.8,30.07,NW,310,3.0,3.0,69,0.00,,,0.00,Wunderground v.1.13,2013-05-30 16:50:00,
2013-05-30 13:00:00,83.6,70.1,30.07,NW,317,3.0,3.0,64,0.00,,,0.00,Wunderground v.1.13,2013-05-30 17:00:00,
2013-05-30 13:05:00,83.2,70.2,30.08,WSW,257,2.0,2.0,65,0.00,,,0.00,Wunderground v.1.13,2013-05-30 17:05:00,
2013-05-30 13:10:00,83.0,70.9,30.08,WSW,248,2.0,2.0,67,0.00,,,0.00,Wunderground v.1.13,2013-05-30 17:10:00,
2013-05-30 13:20:00,81.8,70.2,30.07,NW,306,2.0,4.0,68,0.00,,,0.00,Wunderground v.1.13,2013-05-30 17:20:00,
2013-05-30 13:25:00,82.1,71.8,30.07,WSW,245,2.0,2.0,71,0.00,,,0.00,Wunderground v.1.13,2013-05-30 17:25:00,
2013-05-30 13:30:00,82.8,71.2,30.07,SW,221,2.0,2.0,68,0.00,,,0.00,Wunderground v.1.13,2013-05-30 17:30:00,
2013-05-30 13:40:00,83.2,71.1,30.07,West,259,2.0,4.0,67,0.00,,,0.00,Wunderground v.1.13,2013-05-30 17:40:00,
2013-05-30 13:45:00,83.0,70.0,30.07,WNW,284,2.0,4.0,65,0.00,,,0.00,Wunderground v.1.13,2013-05-30 17:45:00,
2013-05-30 13:50:00,83.9,71.3,30.07,WSW,245,2.0,2.0,66,0.00,,,0.00,Wunderground v.1.13,2013-05-30 17:50:00,
2013-05-30 14:00:00,85.6,71.6,30.06,NW,304,2.0,4.0,63,0.00,,,0.00,Wunderground v.1.13,2013-05-30 18:00:00,
2013-05-30 14:05:00,85.0,71.0,30.06,SW,222,3.0,3.0,63,0.00,,,0.00,Wunderground v.1.13,2013-05-30 18:05:00,
2013-05-30 14:10:00,85.3,69.8,30.06,West,281,2.0,2.0,60,0.00,,,0.00,Wunderground v.1.13,2013-05-30 18:10:00,
2013-05-30 14:15:00,85.4,71.4,30.06,SW,235,1.0,4.0,63,0.00,,,0.00,Wunderground v.1.13,2013-05-30 18:15:00,
2013-05-30 14:25:00,85.7,72.6,30.05,NW,321,2.0,2.0,65,0.00,,,0.00,Wunderground v.1.13,2013-05-30 18:25:00,
2013-05-30 14:30:00,85.7,69.7,30.05,SW,224,2.0,4.0,59,0.00,,,0.00,Wunderground v.1.13,2013-05-30 18:30:00,
2013-05-30 14:35:00,85.2,72.1,30.05,SW,216,3.0,3.0,65,0.00,,,0.00,Wunderground v.1.13,2013-05-30 18:35:00,
2013-05-30 14:40:00,84.9,70.4,30.05,WNW,295,2.0,4.0,62,0.00,,,0.00,Wunderground v.1.13,2013-05-30 18:40:00,
2013-05-30 14:50:00,84.9,72.3,30.05,WNW,298,1.0,4.0,66,0.00,,,0.00,Wunderground v.1.13,2013-05-30 18:50:00,
2013-05-30 14:55:00,85.3,72.2,30.05,WNW,300,0.0,4.0,65,0.00,,,0.00,Wunderground v.1.13,2013-05-30 18:55:00,
2013-05-30 15:00:00,84.8,72.6,30.05,West,269,1.0,1.0,67,0.00,,,0.00,Wunderground v.1.13,2013-05-30 19:00:00,
2013-05-30 15:10:00,84.3,72.1,30.05,SW,219,1.0,1.0,67,0.00,,,0.00,Wunderground v.1.13,2013-05-30 19:10:00,
2013-05-30 15:15:00,84.8,71.7,30.05,SW,219,1.0,1.0,65,0.00,,,0.00,Wunderground v.1.13,2013-05-30 19:15:00,
2013-05-30 15:20:00,85.2,70.2,30.05,NNW,331,1.0,4.0,61,0.00,,,0.00,Wunderground v.1.13,2013-05-30 19:20:00,
2013-05-30 15:30:00,84.5,70.0,30.05,WNW,302,2.0,2.0,62,0.00,,,0.00,Wunderground v.1.13,2013-05-30 19:30:00,
2013-05-30 15:35:00,84.1,70.6,30.04,WNW,300,1.0,1.0,64,0.00,,,0.00,Wunderground v.1.13,2013-05-30 19:35:00,
2013-05-30 15:40:00,84.2,70.7,30.04,NW,322,1.0,1.0,64,0.00,,,0.00,Wunderground v.1.13,2013-05-30 19:40:00,
2013-05-30 15:50:00,83.5,71.4,30.04,WNW,282,0.0,4.0,67,0.00,,,0.00,Wunderground v.1.13,2013-05-30 19:50:00,
2013-05-30 15:55:00,84.0,71.9,30.04,WSW,240,0.0,4.0,67,0.00,,,0.00,Wunderground v.1.13,2013-05-30 19:55:00,
2013-05-30 16:00:00,85.0,71.5,30.04,WSW,242,1.0,4.0,64,0.00,,,0.00,Wunderground v.1.13,2013-05-30 20:00:00,
2013-05-30 16:10:00,85.4,71.8,30.03,WSW,257,1.0,4.0,64,0.00,,,0.00,Wunderground v.1.13,2013-05-30 20:10:00,
2013-05-30 16:15:00,85.4,70.9,30.03,West,269,1.0,4.0,62,0.00,,,0.00,Wunderground v.1.13,2013-05-30 20:15:00,
2013-05-30 16:20:00,85.0,70.0,30.03,West,273,2.0,2.0,61,0.00,,,0.00,Wunderground v.1.13,2013-05-30 20:20:00,
2013-05-30 16:30:00,85.6,71.1,30.03,NW,314,2.0,4.0,62,0.00,,,0.00,Wunderground v.1.13,2013-05-30 20:30:00,
2013-05-30 16:35:00,85.5,70.5,30.03,NW,324,1.0,4.0,61,0.00,,,0.00,Wunderground v.1.13,2013-05-30 20:35:00,
2013-05-30 16:40:00,85.0,70.5,30.03,West,269,2.0,2.0,62,0.00,,,0.00,Wunderground v.1.13,2013-05-30 20:40:00,
2013-05-30 16:50:00,85.0,71.0,30.03,WSW,241,1.0,1.0,63,0.00,,,0.00,Wunderground v.1.13,2013-05-30 20:50:00,
2013-05-30 16:55:00,85.0,71.0,30.03,West,273,1.0,1.0,63,0.00,,,0.00,Wunderground v.1.13,2013-05-30 20:55:00,
2013-05-30 17:00:00,85.5,70.0,30.02,SW,227,1.0,5.0,60,0.00,,,0.00,Wunderground v.1.13,2013-05-30 21:00:00,
2013-05-30 17:10:00,85.7,71.2,30.02,West,261,2.0,4.0,62,0.00,,,0.00,Wunderground v.1.13,2013-05-30 21:10:00,
2013-05-30 17:15:00,85.7,70.2,30.02,NW,306,2.0,2.0,60,0.00,,,0.00,Wunderground v.1.13,2013-05-30 21:15:00,
2013-05-30 17:20:00,85.4,69.4,30.02,SW,236,1.0,5.0,59,0.00,,,0.00,Wunderground v.1.13,2013-05-30 21:20:00,
2013-05-30 17:30:00,85.0,70.0,30.02,WSW,238,2.0,2.0,61,0.00,,,0.00,Wunderground v.1.13,2013-05-30 21:30:00,
2013-05-30 17:35:00,84.9,69.5,30.02,WSW,251,2.0,2.0,60,0.00,,,0.00,Wunderground v.1.13,2013-05-30 21:35:00,
2013-05-30 17:40:00,84.7,68.8,30.02,WSW,258,2.0,4.0,59,0.00,,,0.00,Wunderground v.1.13,2013-05-30 21:40:00,
2013-05-30 17:45:00,84.8,69.9,30.02,WSW,249,3.0,3.0,61,0.00,,,0.00,Wunderground v.1.13,2013-05-30 21:45:00,
2013-05-30 17:50:00,84.6,69.2,30.02,WSW,257,2.0,4.0,60,0.00,,,0.00,Wunderground v.1.13,2013-05-30 21:50:00,
2013-05-30 18:00:00,84.5,69.6,30.02,West,268,1.0,4.0,61,0.00,,,0.00,Wunderground v.1.13,2013-05-30 22:00:00,
2013-05-30 18:10:00,83.9,69.0,30.02,NW,323,2.0,2.0,61,0.00,,,0.00,Wunderground v.1.13,2013-05-30 22:10:00,
2013-05-30 18:15:00,83.8,68.9,30.02,WNW,288,1.0,4.0,61,0.00,,,0.00,Wunderground v.1.13,2013-05-30 22:15:00,
2013-05-30 18:20:00,83.6,69.2,30.02,SW,233,1.0,1.0,62,0.00,,,0.00,Wunderground v.1.13,2013-05-30 22:20:00,
2013-05-30 18:25:00,83.6,69.2,30.02,WSW,238,1.0,1.0,62,0.00,,,0.00,Wunderground v.1.13,2013-05-30 22:25:00,
2013-05-30 18:35:00,83.6,69.2,30.02,WSW,254,1.0,1.0,62,0.00,,,0.00,Wunderground v.1.13,2013-05-30 22:35:00,
2013-05-30 18:40:00,83.2,69.3,30.02,WSW,254,0.0,4.0,63,0.00,,,0.00,Wunderground v.1.13,2013-05-30 22:40:00,
2013-05-30 18:45:00,83.0,70.0,30.02,WSW,253,0.0,4.0,65,0.00,,,0.00,Wunderground v.1.13,2013-05-30 22:45:00,
2013-05-30 18:55:00,82.8,69.8,30.02,WSW,256,1.0,1.0,65,0.00,,,0.00,Wunderground v.1.13,2013-05-30 22:55:00,
2013-05-30 19:00:00,82.5,68.6,30.02,WSW,256,1.0,1.0,63,0.00,,,0.00,Wunderground v.1.13,2013-05-30 23:00:00,
2013-05-30 19:05:00,82.5,69.1,30.03,WSW,254,1.0,1.0,64,0.00,,,0.00,Wunderground v.1.13,2013-05-30 23:05:00,
2013-05-30 19:15:00,82.4,69.0,30.03,WSW,254,0.0,4.0,64,0.00,,,0.00,Wunderground v.1.13,2013-05-30 23:15:00,
2013-05-30 19:20:00,82.2,69.3,30.03,WSW,254,0.0,4.0,65,0.00,,,0.00,Wunderground v.1.13,2013-05-30 23:20:00,
2013-05-30 19:25:00,82.0,69.5,30.03,WSW,253,0.0,4.0,66,0.00,,,0.00,Wunderground v.1.13,2013-05-30 23:25:00,
2013-05-30 19:35:00,81.5,68.6,30.03,WSW,254,0.0,4.0,65,0.00,,,0.00,Wunderground v.1.13,2013-05-30 23:35:00,
2013-05-30 19:40:00,81.4,68.9,30.03,WSW,254,0.0,4.0,66,0.00,,,0.00,Wunderground v.1.13,2013-05-30 23:40:00,
2013-05-30 19:45:00,81.1,68.7,30.03,WSW,253,0.0,4.0,66,0.00,,,0.00,Wunderground v.1.13,2013-05-30 23:45:00,
2013-05-30 19:55:00,80.6,68.6,30.03,WSW,254,0.0,4.0,67,0.00,,,0.00,Wunderground v.1.13,2013-05-30 23:55:00,
2013-05-30 20:00:00,80.5,68.5,30.03,WSW,254,0.0,4.0,67,0.00,,,0.00,Wunderground v.1.13,2013-05-31 00:00:00,
2013-05-30 20:05:00,80.4,68.9,30.03,WSW,253,0.0,4.0,68,0.00,,,0.00,Wunderground v.1.13,2013-05-31 00:05:00,
2013-05-30 20:15:00,80.1,69.4,30.03,WSW,254,0.0,4.0,70,0.00,,,0.00,Wunderground v.1.13,2013-05-31 00:15:00,
2013-05-30 20:20:00,79.7,69.9,30.03,WSW,254,0.0,4.0,72,0.00,,,0.00,Wunderground v.1.13,2013-05-31 00:20:00,
2013-05-30 20:25:00,79.4,70.0,30.03,WSW,253,0.0,4.0,73,0.00,,,0.00,Wunderground v.1.13,2013-05-31 00:25:00,
2013-05-30 20:30:00,79.2,69.8,30.03,WSW,253,0.0,4.0,73,0.00,,,0.00,Wunderground v.1.13,2013-05-31 00:30:00,
2013-05-30 20:40:00,78.5,69.9,30.04,WSW,254,0.0,4.0,75,0.00,,,0.00,Wunderground v.1.13,2013-05-31 00:40:00,
2013-05-30 20:45:00,77.7,69.5,30.04,WSW,254,0.0,4.0,76,0.00,,,0.00,Wunderground v.1.13,2013-05-31 00:45:00,
2013-05-30 20:55:00,76.5,69.1,30.04,WSW,254,0.0,4.0,78,0.00,,,0.00,Wunderground v.1.13,2013-05-31 00:55:00,
2013-05-30 21:00:00,76.3,69.3,30.04,WSW,254,0.0,4.0,79,0.00,,,0.00,Wunderground v.1.13,2013-05-31 01:00:00,
2013-05-30 21:05:00,76.1,69.1,30.04,WSW,253,0.0,4.0,79,0.00,,,0.00,Wunderground v.1.13,2013-05-31 01:05:00,
2013-05-30 21:10:00,75.9,68.9,30.04,WSW,253,0.0,4.0,79,0.00,,,0.00,Wunderground v.1.13,2013-05-31 01:10:00,
2013-05-30 21:20:00,75.3,68.7,30.05,WSW,254,0.0,4.0,80,0.00,,,0.00,Wunderground v.1.13,2013-05-31 01:20:00,
2013-05-30 21:25:00,75.0,68.4,30.05,WSW,253,0.0,4.0,80,0.00,,,0.00,Wunderground v.1.13,2013-05-31 01:25:00,
2013-05-30 21:30:00,74.7,68.1,30.05,WSW,254,0.0,4.0,80,0.00,,,0.00,Wunderground v.1.13,2013-05-31 01:30:00,
2013-05-30 21:35:00,74.3,67.7,30.05,WSW,254,0.0,4.0,80,0.00,,,0.00,Wunderground v.1.13,2013-05-31 01:35:00,
2013-05-30 21:45:00,73.8,67.6,30.05,WSW,253,0.0,4.0,81,0.00,,,0.00,Wunderground v.1.13,2013-05-31 01:45:00,
2013-05-30 21:50:00,73.5,67.3,30.05,WSW,254,0.0,4.0,81,0.00,,,0.00,Wunderground v.1.13,2013-05-31 01:50:00,
2013-05-30 21:55:00,73.3,67.5,30.05,WSW,254,0.0,4.0,82,0.00,,,0.00,Wunderground v.1.13,2013-05-31 01:55:00,
2013-05-30 22:05:00,72.8,67.3,30.05,WSW,254,0.0,4.0,83,0.00,,,0.00,Wunderground v.1.13,2013-05-31 02:05:00,
2013-05-30 22:10:00,72.5,67.4,30.06,WSW,254,0.0,4.0,84,0.00,,,0.00,Wunderground v.1.13,2013-05-31 02:10:00,
2013-05-30 22:15:00,72.3,67.2,30.06,WSW,253,0.0,4.0,84,0.00,,,0.00,Wunderground v.1.13,2013-05-31 02:15:00,
2013-05-30 22:25:00,71.8,66.7,30.05,WSW,254,0.0,4.0,84,0.00,,,0.00,Wunderground v.1.13,2013-05-31 02:25:00,
2013-05-30 22:30:00,71.6,66.8,30.05,WSW,254,0.0,4.0,85,0.00,,,0.00,Wunderground v.1.13,2013-05-31 02:30:00,
2013-05-30 22:35:00,71.4,66.7,30.05,WSW,254,0.0,4.0,85,0.00,,,0.00,Wunderground v.1.13,2013-05-31 02:35:00,
2013-05-30 22:45:00,71.0,66.6,30.06,WSW,254,0.0,4.0,86,0.00,,,0.00,Wunderground v.1.13,2013-05-31 02:45:00,
2013-05-30 22:50:00,70.8,66.7,30.06,WSW,254,0.0,4.0,87,0.00,,,0.00,Wunderground v.1.13,2013-05-31 02:50:00,
2013-05-30 22:55:00,70.6,66.5,30.06,WSW,253,0.0,4.0,87,0.00,,,0.00,Wunderground v.1.13,2013-05-31 02:55:00,
2013-05-30 23:00:00,70.4,66.3,30.06,WSW,253,0.0,4.0,87,0.00,,,0.00,Wunderground v.1.13,2013-05-31 03:00:00,
2013-05-30 23:10:00,70.1,66.4,30.06,WSW,254,0.0,4.0,88,0.00,,,0.00,Wunderground v.1.13,2013-05-31 03:10:00,
2013-05-30 23:15:00,70.0,66.3,30.06,WSW,253,0.0,4.0,88,0.00,,,0.00,Wunderground v.1.13,2013-05-31 03:15:00,
2013-05-30 23:20:00,69.9,66.2,30.06,WSW,254,0.0,4.0,88,0.00,,,0.00,Wunderground v.1.13,2013-05-31 03:20:00,
2013-05-30 23:25:00,69.7,66.0,30.06,WSW,254,0.0,4.0,88,0.00,,,0.00,Wunderground v.1.13,2013-05-31 03:25:00,
2013-05-30 23:35:00,69.5,66.1,30.06,WSW,254,0.0,4.0,89,0.00,,,0.00,Wunderground v.1.13,2013-05-31 03:35:00,
2013-05-30 23:40:00,69.4,66.0,30.06,WSW,254,0.0,4.0,89,0.00,,,0.00,Wunderground v.1.13,2013-05-31 03:40:00,
2013-05-30 23:45:00,69.2,65.8,30.06,WSW,254,0.0,4.0,89,0.00,,,0.00,Wunderground v.1.13,2013-05-31 03:45:00,
2013-05-30 23:55:00,68.9,65.5,30.06,WSW,254,0.0,4.0,89,0.00,,,0.00,Wunderground v.1.13,2013-05-31 03:55:00,